,,Stat6,,Stat2,,Stat8,,Stat9,,Stat10,,Wind1,,Wind1,
time,status,PA1M_AVG,status,PR1M_SUM,status,RH1M_AVG,status,SR1M_AVG,status,TA1M_AVG,status,W1dAve1m,status,W1sAve1m,
2005-03-16, 00:25:00,VALID,917.787,VALID,0,VALID,100,VALID,0,VALID,20.6876,VALID,134,VALID,1.34487,
2005-03-16, 00:26:00,VALID,917.787,VALID,0,VALID,100,VALID,-0.0169808,VALID,20.6978,VALID,131,VALID,1.0474,
2005-03-16, 00:27:00,VALID,917.784,VALID,0,VALID,100,VALID,0,VALID,20.6847,VALID,127,VALID,0.965021,
2005-03-16, 01:04:00,VALID,917.855,VALID,0,VALID,100,VALID,0.101885,VALID,20.7568,VALID,267,VALID,0,
2005-03-16, 01:05:00,VALID,917.866,VALID,0,VALID,100,VALID,0.101885,VALID,20.7547,VALID,267,VALID,0,
2005-03-16, 01:06:00,VALID,917.865,VALID,0,VALID,100,VALID,0.118866,VALID,20.735,VALID,267,VALID,0,
2005-03-16, 08:07:00,VALID,916.909,VALID,0,VALID,72.2907,VALID,1010.39,VALID,26.8433,VALID,109,VALID,0.482812,
2005-03-16, 08:08:00,VALID,916.881,VALID,0,VALID,71.2467,VALID,1048.28,VALID,26.8854,VALID,119,VALID,1.27939,
2005-03-16, 08:09:00,VALID,916.864,VALID,0,VALID,71.0611,VALID,985.007,VALID,26.9759,VALID,151,VALID,0.425426,
2005-03-16, 08:10:00,VALID,916.842,VALID,0,VALID,72.1089,VALID,831.959,VALID,27.1441,VALID,102,VALID,1.1843,
2005-03-16, 08:11:00,VALID,916.83,VALID,0,VALID,72.5196,VALID,1031.09,VALID,27.2915,VALID,123,VALID,1.24981,
2005-03-16, 08:12:00,VALID,916.808,VALID,0,VALID,70.9822,VALID,964.562,VALID,27.4594,VALID,109,VALID,1.41349,
2005-03-16, 08:13:00,VALID,916.815,VALID,0,VALID,69.4957,VALID,798.133,VALID,27.4623,VALID,99,VALID,1.01804,
2005-03-16, 08:14:00,VALID,916.813,VALID,0,VALID,70.7343,VALID,754.339,VALID,27.4878,VALID,40,VALID,1.89134,
2005-03-16, 08:15:00,VALID,916.792,VALID,0,VALID,68.2724,VALID,550.909,VALID,27.1999,VALID,49,VALID,2.538,
2005-03-16, 08:16:00,VALID,916.797,VALID,0,VALID,69.9497,VALID,488.301,VALID,26.7569,VALID,6,VALID,1.40111,
2005-03-16, 08:17:00,VALID,916.795,VALID,0,VALID,70.6109,VALID,449.771,VALID,26.6498,VALID,18,VALID,1.12671,
2005-03-16, 08:18:00,VALID,916.8,VALID,0,VALID,69.689,VALID,441.128,VALID,26.7142,VALID,339,VALID,0.353087,
2005-03-16, 08:19:00,VALID,916.796,VALID,0,VALID,70.5499,VALID,459.433,VALID,26.8342,VALID,219,VALID,0.599019,
2005-03-16, 08:20:00,VALID,916.783,VALID,0,VALID,69.5835,VALID,472.152,VALID,27.002,VALID,196,VALID,0.723722,
2005-03-16, 08:21:00,VALID,916.761,VALID,0,VALID,66.8495,VALID,509.578,VALID,27.0246,VALID,175,VALID,1.99033,
2005-03-16, 08:22:00,VALID,916.77,VALID,0,VALID,67.5324,VALID,626.355,VALID,27.0045,VALID,191,VALID,0.760901,
2005-03-16, 08:23:00,VALID,916.766,VALID,0,VALID,67.1102,VALID,572.016,VALID,27.0685,VALID,183,VALID,1.14211,
2005-03-16, 08:24:00,VALID,916.748,VALID,0,VALID,66.8139,VALID,598.438,VALID,27.0922,VALID,176,VALID,1.63077,
2005-03-16, 08:25:00,VALID,916.744,VALID,0,VALID,67.2246,VALID,507.71,VALID,27.0556,VALID,175,VALID,1.54603,
2005-03-16, 08:26:00,VALID,916.712,VALID,0,VALID,66.3816,VALID,438.513,VALID,27.0006,VALID,193,VALID,0.827035,
2005-03-16, 08:27:00,VALID,916.7,VALID,0,VALID,66.5011,VALID,390.729,VALID,26.9686,VALID,218,VALID,0.838481,
2005-03-16, 08:28:00,VALID,916.66,VALID,0,VALID,67.7193,VALID,364.426,VALID,26.7681,VALID,227,VALID,1.125,
2005-03-16, 08:29:00,VALID,916.636,VALID,0,VALID,68.6679,VALID,343.2,VALID,26.6449,VALID,186,VALID,0.902004,
2005-03-16, 08:30:00,VALID,916.617,VALID,0,VALID,66.2595,VALID,326.779,VALID,26.7458,VALID,182,VALID,0.490734,
2005-03-16, 08:31:00,VALID,916.591,VALID,0,VALID,67.5909,VALID,314.723,VALID,26.739,VALID,233,VALID,1.03779,
2005-03-16, 08:32:00,VALID,916.58,VALID,0,VALID,69.4283,VALID,303.125,VALID,26.5997,VALID,199,VALID,1.41164,
2005-03-16, 08:33:00,VALID,916.527,VALID,0,VALID,69.8353,VALID,290.253,VALID,26.4797,VALID,166,VALID,2.19178,
2005-03-16, 08:34:00,VALID,916.489,VALID,0,VALID,70.5092,VALID,282.357,VALID,26.3601,VALID,35,VALID,2.26476,
2005-03-16, 08:35:00,VALID,916.495,VALID,0,VALID,69.9815,VALID,278.214,VALID,26.2986,VALID,20,VALID,1.08448,
2005-03-16, 08:36:00,VALID,916.47,VALID,0,VALID,71.1615,VALID,281.033,VALID,26.3898,VALID,9,VALID,0.546875,
2005-03-16, 08:37:00,VALID,916.465,VALID,0,VALID,69.5593,VALID,289.812,VALID,26.5253,VALID,229,VALID,0.480373,
2005-03-16, 08:38:00,VALID,916.442,VALID,0,VALID,69.8162,VALID,298.642,VALID,26.6747,VALID,178,VALID,0.938565,
2005-03-16, 08:39:00,VALID,916.403,VALID,0,VALID,67.7931,VALID,315.996,VALID,26.6876,VALID,166,VALID,1.8058,
2005-03-16, 08:40:00,VALID,916.377,VALID,0,VALID,69.0113,VALID,343.505,VALID,26.5518,VALID,169,VALID,1.1311,
2005-03-16, 08:41:00,VALID,916.356,VALID,0,VALID,69.4449,VALID,393.004,VALID,26.4031,VALID,210,VALID,1.30134,
2005-03-16, 08:42:00,VALID,916.343,VALID,0,VALID,70.3884,VALID,439.43,VALID,26.2379,VALID,189,VALID,1.56345,
2005-03-16, 08:43:00,VALID,916.331,VALID,0,VALID,70.2829,VALID,468.739,VALID,26.158,VALID,175,VALID,1.12326,
2005-03-16, 08:44:00,VALID,916.326,VALID,0,VALID,70.6097,VALID,472.152,VALID,26.2615,VALID,157,VALID,1.14583,
2005-03-16, 08:45:00,VALID,916.324,VALID,0,VALID,71.07,VALID,475.429,VALID,26.4135,VALID,175,VALID,0.820858,
2005-03-16, 08:46:00,VALID,916.317,VALID,0,VALID,71.3523,VALID,505.383,VALID,26.5525,VALID,153,VALID,0.919389,
2005-03-16, 08:47:00,VALID,916.326,VALID,0,VALID,68.8269,VALID,569.894,VALID,26.6395,VALID,176,VALID,1.32267,
2005-03-16, 08:48:00,VALID,916.306,VALID,0,VALID,67.9609,VALID,618.272,VALID,26.5848,VALID,231,VALID,0.644336,
2005-03-16, 08:49:00,VALID,916.285,VALID,0,VALID,68.9362,VALID,504.28,VALID,26.4455,VALID,235,VALID,0.600521,
2005-03-16, 08:50:00,VALID,916.265,VALID,0,VALID,69.188,VALID,515.029,VALID,26.5392,VALID,165,VALID,0.925037,
2005-03-16, 08:51:00,VALID,916.238,VALID,0,VALID,68.57,VALID,527.594,VALID,26.721,VALID,145,VALID,0.82758,
2005-03-16, 08:52:00,VALID,916.228,VALID,0,VALID,69.7501,VALID,553.219,VALID,26.836,VALID,122,VALID,0.453516,
2005-03-16, 08:53:00,VALID,916.211,VALID,0,VALID,69.8391,VALID,567.737,VALID,26.9302,VALID,103,VALID,1.47111,
2005-03-16, 08:54:00,VALID,916.165,VALID,0,VALID,70.2892,VALID,669.011,VALID,26.8166,VALID,144,VALID,1.57087,
2005-03-16, 08:55:00,VALID,916.158,VALID,0,VALID,70.2206,VALID,791.884,VALID,26.7976,VALID,147,VALID,1.28182,
2005-03-16, 08:56:00,VALID,916.147,VALID,0,VALID,70.7521,VALID,665.767,VALID,26.7749,VALID,146,VALID,1.39024,
2005-03-16, 08:57:00,VALID,916.141,VALID,0,VALID,70.2129,VALID,680.88,VALID,26.7161,VALID,155,VALID,1.74826,
2005-03-16, 08:58:00,VALID,916.115,VALID,0,VALID,71.3001,VALID,750.621,VALID,26.7038,VALID,102,VALID,2.0089,
2005-03-16, 08:59:00,VALID,916.106,VALID,0,VALID,70.7088,VALID,945.747,VALID,26.5188,VALID,130,VALID,1.97191,
2005-03-16, 09:00:00,VALID,916.097,VALID,0,VALID,70.9237,VALID,793.124,VALID,26.48,VALID,200,VALID,1.28498,
2005-03-16, 09:01:00,VALID,916.09,VALID,0,VALID,71.557,VALID,712.108,VALID,26.6517,VALID,157,VALID,1.39826,
2005-03-16, 09:02:00,VALID,916.076,VALID,0,VALID,69.9294,VALID,618.815,VALID,26.9136,VALID,137,VALID,0.928299,
2005-03-16, 09:03:00,VALID,916.049,VALID,0,VALID,69.6572,VALID,899.678,VALID,26.9974,VALID,137,VALID,1.76653,
2005-03-16, 09:04:00,VALID,916.035,VALID,0,VALID,69.1079,VALID,960.079,VALID,26.8874,VALID,199,VALID,1.72693,
2005-03-16, 09:05:00,VALID,916.021,VALID,0,VALID,69.6407,VALID,893.141,VALID,27.0495,VALID,130,VALID,1.81616,
2005-03-16, 09:06:00,VALID,915.994,VALID,0,VALID,69.5059,VALID,766.905,VALID,27.0847,VALID,163,VALID,1.3738,
2005-03-16, 09:07:00,VALID,915.963,VALID,0,VALID,68.5509,VALID,686.671,VALID,27.1461,VALID,131,VALID,0.946615,
2005-03-16, 09:08:00,VALID,915.932,VALID,0,VALID,68.0359,VALID,615.097,VALID,27.2238,VALID,194,VALID,0.971413,
2005-03-16, 09:09:00,VALID,915.92,VALID,0,VALID,68.6488,VALID,569.639,VALID,27.1587,VALID,155,VALID,1.93423,
2005-03-16, 09:10:00,VALID,915.881,VALID,0,VALID,68.8777,VALID,552.522,VALID,27.0006,VALID,111,VALID,2.16352,
2005-03-16, 09:11:00,VALID,915.855,VALID,0,VALID,70.2536,VALID,552.607,VALID,26.6931,VALID,61,VALID,0.752604,
2005-03-16, 09:12:00,VALID,915.856,VALID,0,VALID,71.3955,VALID,593.684,VALID,26.7319,VALID,176,VALID,0.930414,
2005-03-16, 09:13:00,VALID,915.83,VALID,0,VALID,69.3635,VALID,668.722,VALID,26.932,VALID,155,VALID,1.19803,
2005-03-16, 09:14:00,VALID,915.802,VALID,0,VALID,68.4797,VALID,756.36,VALID,27.149,VALID,161,VALID,1.12184,
2005-03-16, 09:15:00,VALID,915.775,VALID,0,VALID,67.292,VALID,719.155,VALID,27.3783,VALID,163,VALID,1.62891,
2005-03-16, 09:16:00,VALID,915.764,VALID,0,VALID,66.3994,VALID,582.069,VALID,27.5037,VALID,157,VALID,1.02753,
2005-03-16, 09:17:00,VALID,915.754,VALID,0,VALID,66.6893,VALID,595.501,VALID,27.5339,VALID,197,VALID,0.758194,
2005-03-16, 09:18:00,VALID,915.74,VALID,0,VALID,66.5901,VALID,624.232,VALID,27.4563,VALID,203,VALID,1.38352,
2005-03-16, 09:19:00,VALID,915.727,VALID,0,VALID,66.5685,VALID,663.356,VALID,27.3546,VALID,207,VALID,1.44931,
2005-03-16, 09:20:00,VALID,915.713,VALID,0,VALID,66.3752,VALID,639.549,VALID,27.3356,VALID,206,VALID,1.01582,
2005-03-16, 09:21:00,VALID,915.682,VALID,0,VALID,67.114,VALID,752.251,VALID,27.4753,VALID,167,VALID,0.732617,
2005-03-16, 09:22:00,VALID,915.644,VALID,0,VALID,66.936,VALID,866.837,VALID,27.7564,VALID,134,VALID,0.650568,
2005-03-16, 09:23:00,VALID,915.619,VALID,0,VALID,64.9981,VALID,834.591,VALID,27.9378,VALID,215,VALID,1.23238,
2005-03-16, 09:24:00,VALID,915.59,VALID,0,VALID,66.6537,VALID,788.505,VALID,27.7693,VALID,210,VALID,0.519531,
2005-03-16, 09:25:00,VALID,915.586,VALID,0,VALID,65.9225,VALID,924.81,VALID,28.0744,VALID,170,VALID,1.90498,
2005-03-16, 09:26:00,VALID,915.554,VALID,0,VALID,66.1412,VALID,887.877,VALID,28.2423,VALID,242,VALID,0.906822,
2005-03-16, 09:27:00,VALID,915.57,VALID,0,VALID,65.1036,VALID,726.932,VALID,28.2973,VALID,214,VALID,1.46475,
2005-03-16, 09:28:00,VALID,915.564,VALID,0,VALID,63.7583,VALID,791.935,VALID,28.2315,VALID,226,VALID,1.55114,
2005-03-16, 09:29:00,VALID,915.553,VALID,0,VALID,64.1245,VALID,608.695,VALID,27.9964,VALID,229,VALID,0.541726,
2005-03-16, 09:30:00,VALID,915.533,VALID,0,VALID,63.785,VALID,527.815,VALID,28.1481,VALID,164,VALID,0.896802,
2005-03-16, 09:31:00,VALID,915.506,VALID,0,VALID,65.8691,VALID,561.998,VALID,28.2347,VALID,61,VALID,0.803445,
2005-03-16, 09:32:00,VALID,915.49,VALID,0,VALID,66.6245,VALID,736.849,VALID,28.2408,VALID,157,VALID,1.24702,
2005-03-16, 09:33:00,VALID,915.468,VALID,0,VALID,66.154,VALID,932.638,VALID,28.2739,VALID,219,VALID,0.792783,
2005-03-16, 09:34:00,VALID,915.433,VALID,0,VALID,65.1379,VALID,836.866,VALID,28.4087,VALID,201,VALID,0.759448,
2005-03-16, 09:35:00,VALID,915.402,VALID,0,VALID,65.0222,VALID,788.861,VALID,28.4615,VALID,222,VALID,0.973264,
2005-03-16, 09:36:00,VALID,915.392,VALID,0,VALID,64.8671,VALID,445.662,VALID,28.6136,VALID,152,VALID,0.849564,
2005-03-16, 09:37:00,VALID,915.364,VALID,0,VALID,63.2293,VALID,394.465,VALID,28.7322,VALID,162,VALID,0.95149,
2005-03-16, 09:38:00,VALID,915.347,VALID,0,VALID,64.89,VALID,361.811,VALID,28.6772,VALID,102,VALID,1.1891,
2005-03-16, 09:39:00,VALID,915.331,VALID,0,VALID,64.1512,VALID,338.02,VALID,28.4216,VALID,38,VALID,1.19643,
2005-03-16, 09:40:00,VALID,915.327,VALID,0,VALID,65.3872,VALID,318.068,VALID,28.1697,VALID,49,VALID,1.07227,
2005-03-16, 09:41:00,VALID,915.317,VALID,0,VALID,67.5553,VALID,310.579,VALID,27.9102,VALID,67,VALID,1.15774,
2005-03-16, 09:42:00,VALID,915.313,VALID,0,VALID,66.1603,VALID,311.7,VALID,27.6946,VALID,124,VALID,1.34793,
2005-03-16, 09:43:00,VALID,915.287,VALID,0,VALID,66.4184,VALID,310.562,VALID,27.5131,VALID,121,VALID,0.661328,
2005-03-16, 09:44:00,VALID,915.258,VALID,0,VALID,66.95,VALID,307.064,VALID,27.4862,VALID,149,VALID,0.18192,
2005-03-16, 09:45:00,VALID,915.234,VALID,0,VALID,68.0779,VALID,300.17,VALID,27.4901,VALID,14,VALID,1.1858,
2005-03-16, 09:46:00,VALID,915.216,VALID,0,VALID,69.2007,VALID,331.364,VALID,27.5024,VALID,26,VALID,1.122,
2005-03-16, 09:47:00,VALID,915.2,VALID,0,VALID,69.0201,VALID,386.416,VALID,27.5548,VALID,21,VALID,0.992746,
2005-03-16, 09:48:00,VALID,915.173,VALID,0,VALID,68.3996,VALID,246.528,VALID,27.6108,VALID,31,VALID,1.70117,
2005-03-16, 09:49:00,VALID,915.184,VALID,0,VALID,68.1402,VALID,214.196,VALID,27.5163,VALID,29,VALID,1.51122,
2005-03-16, 09:50:00,VALID,915.164,VALID,0,VALID,67.5451,VALID,199.015,VALID,27.419,VALID,55,VALID,0.609028,
2005-03-16, 09:51:00,VALID,915.157,VALID,0,VALID,68.8002,VALID,191.34,VALID,27.3586,VALID,17,VALID,1.40885,
2005-03-16, 09:52:00,VALID,915.154,VALID,0,VALID,69.4283,VALID,187.248,VALID,27.2644,VALID,13,VALID,1.21128,
2005-03-16, 09:53:00,VALID,915.133,VALID,0,VALID,70.3986,VALID,187.553,VALID,27.2217,VALID,32,VALID,0.909375,
2005-03-16, 09:54:00,VALID,915.118,VALID,0,VALID,70.7203,VALID,186.399,VALID,27.1225,VALID,21,VALID,1.19798,
2005-03-16, 09:55:00,VALID,915.104,VALID,0,VALID,71.6435,VALID,182.901,VALID,26.9274,VALID,29,VALID,1.15625,
2005-03-16, 09:56:00,VALID,915.086,VALID,0,VALID,72.6417,VALID,171.71,VALID,26.8638,VALID,15,VALID,1.24535,
2005-03-16, 09:57:00,VALID,915.054,VALID,0,VALID,73.1961,VALID,161.895,VALID,26.8311,VALID,11,VALID,0.693056,
2005-03-16, 09:58:00,VALID,915.024,VALID,0,VALID,73.6679,VALID,160.435,VALID,26.8864,VALID,22,VALID,0.800604,
2005-03-16, 09:59:00,VALID,915.003,VALID,0,VALID,72.7968,VALID,162.965,VALID,26.8767,VALID,37,VALID,0.50651,
2005-03-16, 10:00:00,VALID,914.959,VALID,0,VALID,73.4428,VALID,168.28,VALID,26.8483,VALID,57,VALID,1.16667,
2005-03-16, 10:01:00,VALID,914.92,VALID,0,VALID,74.53,VALID,174.852,VALID,26.6209,VALID,39,VALID,1.06468,
2005-03-16, 10:02:00,VALID,914.889,VALID,0,VALID,75.9987,VALID,180.727,VALID,26.5081,VALID,32,VALID,1.09448,
2005-03-16, 10:03:00,VALID,914.869,VALID,0,VALID,75.9835,VALID,185.38,VALID,26.4603,VALID,21,VALID,0.991815,
2005-03-16, 10:04:00,VALID,914.837,VALID,0,VALID,74.3456,VALID,194.414,VALID,26.512,VALID,10,VALID,0.724432,
2005-03-16, 10:05:00,VALID,914.827,VALID,0,VALID,75.0844,VALID,235.626,VALID,26.5321,VALID,23,VALID,1.19699,
2005-03-16, 10:06:00,VALID,914.809,VALID,0,VALID,73.1122,VALID,417.644,VALID,26.4441,VALID,13,VALID,1.43125,
2005-03-16, 10:07:00,VALID,914.811,VALID,0,VALID,73.397,VALID,224.402,VALID,26.3245,VALID,5,VALID,1.12891,
2005-03-16, 10:08:00,VALID,914.801,VALID,0,VALID,73.9667,VALID,196.129,VALID,26.3737,VALID,25,VALID,0.827324,
2005-03-16, 10:09:00,VALID,914.799,VALID,0,VALID,74.8352,VALID,179.453,VALID,26.4926,VALID,41,VALID,0.808416,
2005-03-16, 10:10:00,VALID,914.78,VALID,0,VALID,73.4644,VALID,171.303,VALID,26.5864,VALID,26,VALID,1.04632,
2005-03-16, 10:11:00,VALID,914.748,VALID,0,VALID,72.3378,VALID,168.314,VALID,26.5515,VALID,354,VALID,0.863281,
2005-03-16, 10:12:00,VALID,914.719,VALID,0,VALID,72.4751,VALID,170.742,VALID,26.4635,VALID,331,VALID,0.864062,
2005-03-16, 10:13:00,VALID,914.701,VALID,0,VALID,72.5692,VALID,173.816,VALID,26.3442,VALID,332,VALID,0.530086,
2005-03-16, 10:14:00,VALID,914.684,VALID,0,VALID,72.4853,VALID,179.369,VALID,26.3931,VALID,335,VALID,0.156977,
2005-03-16, 10:15:00,VALID,914.654,VALID,0,VALID,71.5634,VALID,189.591,VALID,26.4875,VALID,335,VALID,0.107599,
2005-03-16, 10:16:00,VALID,914.649,VALID,0,VALID,72.3327,VALID,200.17,VALID,26.5076,VALID,310,VALID,0.242001,
2005-03-16, 10:17:00,VALID,914.653,VALID,0,VALID,73.8739,VALID,212.023,VALID,26.5066,VALID,262,VALID,0.421875,
2005-03-16, 10:18:00,VALID,914.633,VALID,0,VALID,75.5842,VALID,219.426,VALID,26.4503,VALID,262,VALID,0.321555,
2005-03-16, 10:19:00,VALID,914.637,VALID,0,VALID,74.5758,VALID,224.622,VALID,26.4535,VALID,238,VALID,0.683866,
2005-03-16, 10:20:00,VALID,914.631,VALID,0,VALID,74.5351,VALID,231.347,VALID,26.4302,VALID,236,VALID,0.388281,
2005-03-16, 10:21:00,VALID,914.644,VALID,0,VALID,74.572,VALID,238.258,VALID,26.4926,VALID,239,VALID,0.299479,
2005-03-16, 10:22:00,VALID,914.626,VALID,0,VALID,73.7454,VALID,246.579,VALID,26.5149,VALID,237,VALID,0.394159,
2005-03-16, 10:23:00,VALID,914.625,VALID,0,VALID,73.9578,VALID,249.941,VALID,26.5211,VALID,237,VALID,0.131324,
2005-03-16, 10:24:00,VALID,914.638,VALID,0,VALID,74.591,VALID,264.952,VALID,26.5699,VALID,240,VALID,0.693407,
2005-03-16, 10:25:00,VALID,914.633,VALID,0,VALID,74.2859,VALID,367.295,VALID,26.5702,VALID,217,VALID,0.699013,
2005-03-16, 10:26:00,VALID,914.64,VALID,0,VALID,72.8337,VALID,336.085,VALID,26.6575,VALID,196,VALID,0.735677,
2005-03-16, 10:27:00,VALID,914.656,VALID,0,VALID,71.7427,VALID,264.307,VALID,26.7862,VALID,198,VALID,1.05793,
2005-03-16, 10:28:00,VALID,914.666,VALID,0,VALID,72.526,VALID,252.709,VALID,26.858,VALID,250,VALID,0.672619,
2005-03-16, 10:29:00,VALID,914.677,VALID,0,VALID,72.3289,VALID,243.93,VALID,26.7998,VALID,249,VALID,0.818638,
2005-03-16, 10:30:00,VALID,914.677,VALID,0,VALID,72.442,VALID,271.914,VALID,26.632,VALID,253,VALID,0.603743,
2005-03-16, 10:31:00,VALID,914.668,VALID,0,VALID,73.0855,VALID,256.292,VALID,26.5541,VALID,254,VALID,0.715588,
2005-03-16, 10:32:00,VALID,914.664,VALID,0,VALID,73.1796,VALID,230.464,VALID,26.5505,VALID,245,VALID,0.513393,
2005-03-16, 10:33:00,VALID,914.661,VALID,0,VALID,74.1142,VALID,222.772,VALID,26.5505,VALID,253,VALID,0.46689,
2005-03-16, 10:34:00,VALID,914.637,VALID,0,VALID,75.0221,VALID,211.87,VALID,26.5832,VALID,252,VALID,0.44093,
2005-03-16, 10:35:00,VALID,914.642,VALID,0,VALID,73.5967,VALID,209.611,VALID,26.4894,VALID,257,VALID,0.689931,
2005-03-16, 10:36:00,VALID,914.62,VALID,0,VALID,74.7271,VALID,210.936,VALID,26.4315,VALID,314,VALID,0.564546,
2005-03-16, 10:37:00,VALID,914.614,VALID,0,VALID,74.7055,VALID,214.621,VALID,26.5023,VALID,1,VALID,0.639717,
2005-03-16, 10:38:00,VALID,914.603,VALID,0,VALID,73.706,VALID,214.621,VALID,26.502,VALID,312,VALID,0.858445,
2005-03-16, 10:39:00,VALID,914.595,VALID,0,VALID,71.2696,VALID,213.602,VALID,26.3924,VALID,337,VALID,0.891741,
2005-03-16, 10:40:00,VALID,914.579,VALID,0,VALID,72.5234,VALID,215.945,VALID,26.3805,VALID,9,VALID,0.843164,
2005-03-16, 10:41:00,VALID,914.581,VALID,0,VALID,72.5806,VALID,218.238,VALID,26.4254,VALID,3,VALID,0.346112,
2005-03-16, 10:42:00,VALID,914.571,VALID,0,VALID,73.5941,VALID,294.533,VALID,26.5447,VALID,13,VALID,0.297656,
2005-03-16, 10:43:00,VALID,914.571,VALID,0,VALID,71.7732,VALID,198.064,VALID,26.6582,VALID,14,VALID,0.132639,
2005-03-16, 10:44:00,VALID,914.546,VALID,0,VALID,72.437,VALID,195.602,VALID,26.7649,VALID,313,VALID,0.322088,
2005-03-16, 10:45:00,VALID,914.55,VALID,0,VALID,71.9995,VALID,221.6,VALID,26.8849,VALID,212,VALID,0.110305,
2005-03-16, 10:46:00,VALID,914.544,VALID,0,VALID,73.355,VALID,223.536,VALID,26.9428,VALID,234,VALID,0.327762,
2005-03-16, 10:47:00,VALID,914.539,VALID,0,VALID,73.2025,VALID,214.468,VALID,26.9269,VALID,243,VALID,0.328497,
2005-03-16, 10:48:00,VALID,914.55,VALID,0,VALID,72.3429,VALID,222.602,VALID,26.8752,VALID,254,VALID,0.482013,
2005-03-16, 10:49:00,VALID,914.532,VALID,0,VALID,72.7231,VALID,219.019,VALID,26.752,VALID,251,VALID,0.379861,
2005-03-16, 10:50:00,VALID,914.514,VALID,0,VALID,74.0392,VALID,221.006,VALID,26.6967,VALID,251,VALID,0.0783067,
2005-03-16, 10:51:00,VALID,914.504,VALID,0,VALID,73.467,VALID,234.183,VALID,26.7549,VALID,251,VALID,0.129464,
2005-03-16, 10:52:00,VALID,914.488,VALID,0,VALID,73.1961,VALID,248.599,VALID,26.9104,VALID,262,VALID,0.0757068,
2005-03-16, 10:53:00,VALID,914.47,VALID,0,VALID,74.1155,VALID,260.978,VALID,27.0764,VALID,350,VALID,0.384415,
2005-03-16, 10:54:00,VALID,914.459,VALID,0,VALID,72.5883,VALID,285.397,VALID,27.1281,VALID,352,VALID,0.387305,
2005-03-16, 10:55:00,VALID,914.443,VALID,0,VALID,73.776,VALID,296.876,VALID,27.2047,VALID,25,VALID,0.420387,
2005-03-16, 10:56:00,VALID,914.424,VALID,0,VALID,73.2419,VALID,302.072,VALID,27.3402,VALID,17,VALID,0.67569,
2005-03-16, 10:57:00,VALID,914.43,VALID,0,VALID,71.8012,VALID,292.648,VALID,27.4246,VALID,25,VALID,0.376999,
2005-03-16, 10:58:00,VALID,914.421,VALID,0,VALID,71.0407,VALID,273.901,VALID,27.5324,VALID,15,VALID,0.121652,
2005-03-16, 10:59:00,VALID,914.415,VALID,0,VALID,70.3731,VALID,257.039,VALID,27.5486,VALID,264,VALID,0.485305,
2005-03-16, 11:00:00,VALID,914.41,VALID,0,VALID,68.5497,VALID,248.82,VALID,27.4354,VALID,229,VALID,0.787064,
2005-03-16, 11:01:00,VALID,914.403,VALID,0,VALID,69.7501,VALID,240.5,VALID,27.2924,VALID,224,VALID,0.609012,
2005-03-16, 11:02:00,VALID,914.39,VALID,0,VALID,71.0369,VALID,247.309,VALID,27.2374,VALID,236,VALID,0.738467,
2005-03-16, 11:03:00,VALID,914.393,VALID,0,VALID,72.1534,VALID,253.201,VALID,27.0782,VALID,253,VALID,0.602307,
2005-03-16, 11:04:00,VALID,914.377,VALID,0,VALID,68.9998,VALID,252.369,VALID,26.9039,VALID,246,VALID,0.768229,
2005-03-16, 11:05:00,VALID,914.371,VALID,0,VALID,70.2523,VALID,230.141,VALID,26.8166,VALID,246,VALID,0.638808,
2005-03-16, 11:06:00,VALID,914.352,VALID,0,VALID,69.0138,VALID,207.913,VALID,26.8428,VALID,251,VALID,0.203125,
2005-03-16, 11:07:00,VALID,914.339,VALID,0,VALID,68.3093,VALID,187.383,VALID,26.924,VALID,243,VALID,0.549964,
2005-03-16, 11:08:00,VALID,914.323,VALID,0,VALID,68.2508,VALID,175.87,VALID,26.8975,VALID,226,VALID,0.431166,
2005-03-16, 11:09:00,VALID,914.319,VALID,0,VALID,68.4606,VALID,168.772,VALID,26.9201,VALID,226,VALID,0.193824,
2005-03-16, 11:10:00,VALID,914.304,VALID,0,VALID,69.3927,VALID,162.574,VALID,27.0178,VALID,226,VALID,0,
2005-03-16, 11:11:00,VALID,914.294,VALID,0,VALID,69.7284,VALID,164.867,VALID,27.1691,VALID,206,VALID,0.135069,
2005-03-16, 11:12:00,VALID,914.276,VALID,0,VALID,68.7722,VALID,175.803,VALID,27.237,VALID,177,VALID,0.0851935,
2005-03-16, 11:13:00,VALID,914.272,VALID,0,VALID,68.921,VALID,191.629,VALID,27.2862,VALID,177,VALID,0.0163517,
2005-03-16, 11:14:00,VALID,914.268,VALID,0,VALID,69.1778,VALID,221.022,VALID,27.3409,VALID,112,VALID,0.286585,
2005-03-16, 11:15:00,VALID,914.252,VALID,0,VALID,69.0901,VALID,319.257,VALID,27.347,VALID,39,VALID,0.402257,
2005-03-16, 11:16:00,VALID,914.239,VALID,0,VALID,70.0997,VALID,321.124,VALID,27.3473,VALID,21,VALID,0.803735,
2005-03-16, 11:17:00,VALID,914.232,VALID,0,VALID,69.2529,VALID,350.688,VALID,27.4127,VALID,19,VALID,0.506882,
2005-03-16, 11:18:00,VALID,914.208,VALID,0,VALID,68.9235,VALID,393.259,VALID,27.4796,VALID,11,VALID,0.621185,
2005-03-16, 11:19:00,VALID,914.185,VALID,0,VALID,67.7956,VALID,418.985,VALID,27.6126,VALID,15,VALID,0.384233,
2005-03-16, 11:20:00,VALID,914.165,VALID,0,VALID,67.7346,VALID,429.224,VALID,27.6995,VALID,23,VALID,1.02144,
2005-03-16, 11:21:00,VALID,914.161,VALID,0,VALID,66.7453,VALID,441.043,VALID,27.7057,VALID,8,VALID,0.866655,
2005-03-16, 11:22:00,VALID,914.149,VALID,0,VALID,66.3663,VALID,439.549,VALID,27.8224,VALID,5,VALID,0.431743,
2005-03-16, 11:23:00,VALID,914.135,VALID,0,VALID,65.9518,VALID,442.283,VALID,28.0586,VALID,342,VALID,0.445703,
2005-03-16, 11:24:00,VALID,914.122,VALID,0,VALID,63.9096,VALID,438.004,VALID,28.3594,VALID,2,VALID,0.465116,
2005-03-16, 11:25:00,VALID,914.111,VALID,0,VALID,62.7143,VALID,416.777,VALID,28.4464,VALID,22,VALID,0.965376,
2005-03-16, 11:26:00,VALID,914.113,VALID,0,VALID,63.2623,VALID,454.203,VALID,28.3724,VALID,33,VALID,0.921875,
2005-03-16, 11:27:00,VALID,914.116,VALID,0,VALID,62.2018,VALID,445.917,VALID,28.4234,VALID,104,VALID,0.253049,
2005-03-16, 11:28:00,VALID,914.094,VALID,0,VALID,62.6011,VALID,391.442,VALID,28.5208,VALID,99,VALID,0.423971,
2005-03-16, 11:29:00,VALID,914.086,VALID,0,VALID,63.9528,VALID,293.106,VALID,28.4824,VALID,44,VALID,1.2262,
2005-03-16, 11:30:00,VALID,914.095,VALID,0,VALID,60.8603,VALID,316.013,VALID,28.2908,VALID,54,VALID,0.726926,
2005-03-16, 11:31:00,VALID,914.096,VALID,0,VALID,61.0421,VALID,357.582,VALID,28.151,VALID,309,VALID,0.547222,
2005-03-16, 11:32:00,VALID,914.089,VALID,0,VALID,61.655,VALID,322.992,VALID,27.9734,VALID,234,VALID,0.387536,
2005-03-16, 11:33:00,VALID,914.085,VALID,0,VALID,63.8117,VALID,267.635,VALID,28.0352,VALID,235,VALID,0.13151,
2005-03-16, 11:34:00,VALID,914.078,VALID,0,VALID,66.538,VALID,272.627,VALID,28.1574,VALID,263,VALID,0.491806,
2005-03-16, 11:35:00,VALID,914.09,VALID,0,VALID,69.8124,VALID,259.688,VALID,28.1769,VALID,292,VALID,0.395089,